カタログに戻る

STARLINK-35059

運用中通信SSO
NORAD 65454·PAYLOAD·🇺🇸 United States

打ち上げ Sep 3, 2025 から Vandenberg Space Force Base

Loading…

次のパス (今後24時間)

TLE

最新Source: CelesTrak SupGP

元期: Sep 15, 2026, 02:45 UTC

1 65454C 25194W   26258.11506944  .00968280  00000+0  57089-1 0  2588
2 65454  97.2854 107.9608 0001688  91.2168 166.1149 15.11172069    14

AllMySatでSTARLINK-35059をリアルタイム追跡

Download on the App Store